Weather History for Aurora, IL

Change the Weather History Date:

Monday, November 19, 2012

  Actual Average Record
Temperature  
Mean Temperature 46 °F 36 °F  
Max Temperature 57 °F 46 °F 58 °F (2007)
Min Temperature 34 °F 27 °F 19 °F (1997)
Degree Days  
Heating Degree Days 19 29  
Month to date heating degree days 493 458  
Since 1 July heating degree days 1184 1065  
Cooling Degree Days 0 0  
Month to date cooling degree days 0 0  
Year to date cooling degree days 1007 655  
Moisture  
Dew Point 38 °F    
Average Humidity 76    
Maximum Humidity 96    
Minimum Humidity 55    
Precipitation  
Precipitation T in 0.10 in 0.19 in (2004)
Month to date precipitation 0.86 2.13  
Year to date precipitation 22.35 33.89  
Sea Level Pressure  
Sea Level Pressure 30.22 in    
Wind  
Wind Speed 7 mph (SSE)    
Max Wind Speed 15 mph    
Max Gust Speed 17 mph    
Visibility 9 miles    
Events      
T = Trace of Precipitation, MM = Missing Value Source: NWS Daily Summary

Daily Weather History Graph

Daily Weather History Graph

Search for Another Location

Airport:

Trip Planner

Search our weather history database for the weather conditions in past years. The results will help you decide how hot, cold, wet, or windy it might be!

Date:

Astronomy

Nov. 19, 2012 Rise Set
Actual Time 6:48 AM CST 4:29 PM CST
Civil Twilight 6:18 AM CST 5:00 PM CST
Nautical Twilight 5:44 AM CST 5:33 PM CST
Astronomical Twilight 5:11 AM CST 6:07 PM CST
Moon 11:49 AM CST (11/19) 10:59 PM CST (11/19)
Length of Visible Light 10h 41m
Length of Day
9h 41m
Waxing Crescent, 41% of the Moon is Illuminated
Nov 19
Waxing Crescent
Nov 20
First Quarter
Nov 28
Full
Dec 6
Last Quarter
Dec 13
New

Hourly Weather History & Observations

Time (CST) Temp. Windchill Dew Point Humidity Pressure Visibility Wind Dir Wind Speed Gust Speed Precip Events Conditions
12:52 AM 39.0 °F 36.8 °F 34.0 °F 82% 30.32 in 9.0 mi SSE 3.5 mph - N/A   Clear
1:52 AM 39.0 °F 35.7 °F 34.0 °F 82% 30.31 in 9.0 mi SE 4.6 mph - N/A   Clear
2:52 AM 39.0 °F 35.7 °F 34.0 °F 82% 30.30 in 8.0 mi SE 4.6 mph - N/A   Clear
3:52 AM 39.0 °F 35.7 °F 34.0 °F 82% 30.28 in 8.0 mi SE 4.6 mph - N/A   Clear
4:52 AM 37.9 °F 35.5 °F 34.0 °F 86% 30.30 in 8.0 mi East 3.5 mph - N/A   Clear
5:52 AM 34.0 °F 28.8 °F 32.0 °F 92% 30.29 in 7.0 mi East 5.8 mph - N/A   Clear
6:52 AM 35.1 °F 32.2 °F 32.0 °F 89% 30.29 in 8.0 mi ESE 3.5 mph - N/A   Clear
7:52 AM 39.0 °F 36.8 °F 35.1 °F 86% 30.28 in 6.0 mi SE 3.5 mph - N/A   Clear
8:52 AM 43.0 °F 38.8 °F 37.0 °F 80% 30.28 in 7.0 mi SE 6.9 mph - N/A   Clear
9:52 AM 46.9 °F - 37.9 °F 71% 30.27 in 7.0 mi SSE 6.9 mph - N/A   Clear
10:52 AM 50.0 °F - 39.0 °F 66% 30.25 in 8.0 mi South 9.2 mph - N/A   Clear
11:52 AM 54.0 °F - 39.9 °F 59% 30.22 in 9.0 mi South 8.1 mph - N/A   Clear
12:52 PM 57.0 °F - 41.0 °F 55% 30.21 in 9.0 mi SSW 11.5 mph - N/A   Clear
1:52 PM 55.9 °F - 39.0 °F 53% 30.18 in 10.0 mi South 11.5 mph - N/A   Partly Cloudy
2:52 PM 55.0 °F - 39.0 °F 55% 30.18 in 10.0 mi SSW 10.4 mph - N/A   Overcast
3:52 PM 53.1 °F - 39.9 °F 61% 30.16 in 10.0 mi South 6.9 mph - N/A   Overcast
4:52 PM 51.1 °F - 41.0 °F 68% 30.16 in 10.0 mi SSE 5.8 mph - N/A   Overcast
5:52 PM 50.0 °F - 39.9 °F 68% 30.15 in 10.0 mi SSE 8.1 mph - N/A   Overcast
6:52 PM 48.9 °F - 39.9 °F 71% 30.15 in 10.0 mi SSE 6.9 mph - N/A   Overcast
7:52 PM 48.9 °F - 41.0 °F 74% 30.14 in 9.0 mi SSE 8.1 mph - 0.00 in   Overcast
8:52 PM 48.9 °F - 42.1 °F 77% 30.13 in 8.0 mi South 6.9 mph - N/A   Overcast
9:52 PM 48.9 °F - 41.0 °F 74% 30.12 in 8.0 mi South 6.9 mph - N/A   Overcast
10:52 PM 48.9 °F - 41.0 °F 74% 30.11 in 9.0 mi South 8.1 mph - N/A   Overcast
11:52 PM 48.9 °F - 42.1 °F 77% 30.11 in 9.0 mi South 3.5 mph - N/A   Overcast